User: anonymous
Location: Oshawa
(43.9000°N, 78.8670°W)
Time: 18:00:59
(UTC-04:00)
Language:

IDEFIX/ARIANE 42P - Orbit

View from above orbital plane
View from above orbital plane
View from above satellite
View from above satellite

Ground track
Ground track

The orbit data is extracted from the following two-line orbital elements,

1 27422U 02021B   14261.15022854  .00000152  00000-0  76370-4 0  5859
2 27422 098.2916 299.1787 0011444 332.9134 093.5754 14.29049937643415
Epoch (UTC): 18 September 2014 03:36:19
Eccentricity: 0.0011444
inclination: 98.2916°
perigee height: 787 km
apogee height: 803 km
right ascension of ascending node: 299.1787°
argument of perigee: 332.9134°
revolutions per day: 14.29049937
mean anomaly at epoch: 93.5754°
orbit number at epoch: 64341

The dashed part of the orbit path shows where the satellite is in the earth's shadow,  

DLR